Pittsburgh, Pennsylvania, United States (15201)
Lat: 40.44N, Lon: 80W
Wx Zone: PAZ021
Local Info
Past Weather Observations for Today

NOTE: This archive is for the closest National Weather Service station to Pittsburgh. Information may differ from the station used for current weather conditions.

Click here for Long-term Archive

Time Weather Temperature Dewpoint Humidity Pressure Winds Precip Visibility
22:53
Overcast
54°F / 12°C 48°F / 9°C 82% 29.89 in
(1012 mb)
NNW 5.8 mph
(NNW 9 kph)
- 10SM
21:53
Overcast
54°F / 12°C 48°F / 9°C 82% 29.92 in
(1013 mb)
NNW 8.1 mph
(NNW 13 kph)
- 10SM
20:53
Overcast
55°F / 13°C 50°F / 10°C 82% 29.92 in
(1013 mb)
NW 5.8 mph
(NW 9 kph)
- 10SM
19:53
Mostly Cloudy
55°F / 13°C 50°F / 10°C 82% 29.92 in
(1013 mb)
Calm 0.00 in
(0.00 mm)
10SM
18:53
Overcast
Light Rain
57°F / 14°C 50°F / 10°C 77% 29.92 in
(1013 mb)
NNW 5.8 mph
(NNW 9 kph)
0.01 in
(0.25 mm)
10SM
17:53
Overcast
61°F / 16°C 48°F / 9°C 63% 29.92 in
(1013 mb)
Variable 4.6 mph
(Variable 7 kph)
- 10SM
17:00
Mostly Cloudy
61°F / 16°C 50°F / 10°C 68% 29.92 in
(1013 mb)
NNW 11.5 mph
(NNW 19 kph)
- 10SM
16:53
Mostly Cloudy
63°F / 17°C 50°F / 10°C 64% 29.92 in
(1013 mb)
N 8.1 mph
(N 13 kph)
- 10SM
16:05
Mostly Cloudy
64°F / 18°C 52°F / 11°C 64% 29.92 in
(1013 mb)
NW 10.4 mph
(NW 17 kph)
- 10SM
15:53
Partly Cloudy
64°F / 18°C 50°F / 10°C 60% 29.92 in
(1013 mb)
NNW 11.5 mph
(NNW 19 kph)
- 10SM
15:14
Mostly Cloudy
64°F / 18°C 52°F / 11°C 64% 29.89 in
(1012 mb)
Variable 6.9 mph
(Variable 11 kph)
- 10SM
14:53
Partly Cloudy
66°F / 19°C 52°F / 11°C 60% 29.89 in
(1012 mb)
NNW 15 mph
(NNW 24 kph)
- 10SM
14:00
Partly Cloudy
66°F / 19°C 54°F / 12°C 64% 29.92 in
(1013 mb)
NW 10.4 mph
(NW 17 kph)
- 10SM
13:53
Mostly Cloudy
66°F / 19°C 54°F / 12°C 64% 29.92 in
(1013 mb)
NNW 13.8 mph
(NNW 22 kph)
- 10SM
12:53
Mostly Cloudy
66°F / 19°C 54°F / 12°C 64% 29.89 in
(1012 mb)
NNW 10.4 mph
(NNW 17 kph)
- 10SM
12:00
Overcast
64°F / 18°C 54°F / 12°C 68% 29.92 in
(1013 mb)
NW 6.9 mph
(NW 11 kph)
- 10SM
11:53
Overcast
64°F / 18°C 54°F / 12°C 68% 29.92 in
(1013 mb)
NNW 9.2 mph
(NNW 15 kph)
- 10SM
11:36
Overcast
68°F / 20°C 55°F / 13°C 64% 29.92 in
(1013 mb)
W 11.5 mph
(W 19 kph)
- 10SM
11:12
Overcast
64°F / 18°C 55°F / 13°C 73% 29.92 in
(1013 mb)
WNW 9.2 mph
(WNW 15 kph)
- 10SM
10:53
Mostly Cloudy
66°F / 19°C 55°F / 13°C 68% 29.92 in
(1013 mb)
SW 9.2 mph
(SW 15 kph)
- 10SM
10:37
Mostly Cloudy
66°F / 19°C 55°F / 13°C 68% 29.92 in
(1013 mb)
SSW 12.7 mph
(SSW 20 kph)
- 10SM
09:53
Mostly Cloudy
66°F / 19°C 55°F / 13°C 68% 29.92 in
(1013 mb)
SW 12.7 mph
(SW 20 kph)
- 10SM
08:53
Mostly Cloudy
63°F / 17°C 55°F / 13°C 77% 29.92 in
(1013 mb)
SSW 15 mph
(SSW 24 kph)
- 10SM
08:23
Mostly Cloudy
63°F / 17°C 55°F / 13°C 77% 29.92 in
(1013 mb)
SW 13.8 mph
(SW 22 kph)
- 10SM
07:53
Partly Cloudy
63°F / 17°C 57°F / 14°C 83% 29.92 in
(1013 mb)
SW 11.5 mph
(SW 19 kph)
- 10SM
07:48
Partly Cloudy
61°F / 16°C 55°F / 13°C 83% 29.92 in
(1013 mb)
SW 10.4 mph
(SW 17 kph)
- 10SM
06:53
Mostly Cloudy
59°F / 15°C 55°F / 13°C 88% 29.92 in
(1013 mb)
SW 6.9 mph
(SW 11 kph)
- 10SM
05:53
Mostly Cloudy
Fog And Mist
57°F / 14°C 54°F / 12°C 88% 29.89 in
(1012 mb)
S 9.2 mph
(S 15 kph)
0.00 in
(0.00 mm)
5SM
05:49
Mostly Cloudy
Fog And Mist
57°F / 14°C 54°F / 12°C 88% 29.89 in
(1012 mb)
S 10.4 mph
(S 17 kph)
0.00 in
(0.00 mm)
5SM
04:53
Overcast
Light Rain
55°F / 13°C 54°F / 12°C 94% 29.86 in
(1011 mb)
SSE 8.1 mph
(SSE 13 kph)
0.01 in
(0.25 mm)
7SM
04:12
Partly Cloudy
55°F / 13°C 54°F / 12°C 94% 29.89 in
(1012 mb)
SSW 8.1 mph
(SSW 13 kph)
- 10SM
03:53
Overcast
55°F / 13°C 54°F / 12°C 94% 29.89 in
(1012 mb)
W 8.1 mph
(W 13 kph)
0.04 in
(1.02 mm)
10SM
03:45
Overcast
55°F / 13°C 54°F / 12°C 94% 29.89 in
(1012 mb)
W 11.5 mph
(W 19 kph)
0.04 in
(1.02 mm)
10SM
03:37
Overcast
Light Rain
55°F / 13°C 54°F / 12°C 94% 29.89 in
(1012 mb)
W 12.7 mph
(W 20 kph)
0.04 in
(1.02 mm)
3SM
03:31
Overcast
Light Rain
57°F / 14°C 55°F / 13°C 94% 29.89 in
(1012 mb)
W 18.4 mph
(W 30 kph)
0.03 in
(0.76 mm)
1 1/4SM
03:26
Overcast
Light Rain
57°F / 14°C 55°F / 13°C 94% 29.83 in
(1010 mb)
S 5.8 mph
(S 9 kph)
0.01 in
(0.25 mm)
1/2SM
03:16
Mostly Cloudy
Light Rain
57°F / 14°C 55°F / 13°C 94% 29.83 in
(1010 mb)
SE 6.9 mph
(SE 11 kph)
0.01 in
(0.25 mm)
1/2SM
03:07
Mostly Cloudy
Light Rain
57°F / 14°C 55°F / 13°C 94% 29.83 in
(1010 mb)
SE 5.8 mph
(SE 9 kph)
0.00 in
(0.00 mm)
1 3/4SM
02:53
Partly Cloudy
Fog And Mist
57°F / 14°C 55°F / 13°C 94% 29.86 in
(1011 mb)
SE 3.5 mph
(SE 6 kph)
- 4SM
01:53
Mostly Cloudy
Fog And Mist
57°F / 14°C 55°F / 13°C 94% 29.86 in
(1011 mb)
N 4.6 mph
(N 7 kph)
- 6SM
01:42
Overcast
Fog And Mist
57°F / 14°C 55°F / 13°C 94% 29.86 in
(1011 mb)
NNW 5.8 mph
(NNW 9 kph)
- 5SM
01:33
Overcast
Fog And Mist
57°F / 14°C 54°F / 12°C 88% 29.89 in
(1012 mb)
NW 4.6 mph
(NW 7 kph)
- 2SM
00:53
Clear
59°F / 15°C 55°F / 13°C 88% 29.89 in
(1012 mb)
SE 3.5 mph
(SE 6 kph)
- 7SM
Time Weather Temperature Dewpoint Humidity Pressure Winds Precip Visibility


Weather for websites

WeatherForYou.com, LLC is not responsible for any damages or problems caused by this service. Current weather conditions are obtained from the closest station including government and personal stations which may have varying degrees of accuracy. Weather forecasts are derived from the NOAA NDFD. Like all things, this site belongs to Jesus Christ... He just trusts us to maintain it. If you have any questions or comments email webmaster@weatherforyou.com

Copyright © 2016, WeatherForYou.com LLC. All rights reserved.